Flag for Philippines Weather past 2 weeks in Mabalacat, Philippines

Now
86 °F

Broken clouds.


Feels Like: 93 °F
Forecast: 75 / 88 °F
Wind: 5 mph from Southeast

Location: Clarkfield Pampanga International Airport

Current Time: Aug 23, 2014 at 5:55:44 PM

Latest Report: Aug 23, 2014 at 2:00 PM


Visibility: N/A

Pressure: 29.80 "Hg

Humidity: 66%

Dew point: 73 °F

Location of MabalacatLocation

Historic Weather in Mabalacat — Graph

°F

Mabalacat temperature yesterday

Maximum temperature yesterday: 88 °F (at 12:00 PM)
Minimum temperature yesterday: 73 °F (at 4:00 AM)
Average temperature yesterday: 80 °F

Past Weeks' High & Low Weather Summary

 TemperatureHumidityPressure
High93 °F (Aug 14, 1:00 PM)100% (Aug 15, 1:00 AM)29.98 "Hg (Aug 15, 1:00 AM)
Low73 °F (Aug 16, 7:00 PM)41% (Aug 11, 3:00 PM)29.74 "Hg (Aug 11, 3:00 PM)
Average81 °F80%29.85 "Hg
* Reported Aug 8 2:00 PM — Aug 23 2:00 PM, Mabalacat, Weather by CustomWeather, © 2014

Note: Actual official high and low records may vary slightly from our data, if they occured in-between our weather recording intervals... More about our weather records

Advertising

Mabalacat weather history for previous 24 hours

 ConditionsComfort  
Time TempWeatherWind HumidityBarometerVisibility
2:00 PM
Aug 23
86 °FBroken clouds.5 mph66%29.80 "HgN/A
1:00 PM90 °FBroken clouds.6 mph59%29.80 "HgN/A
12:00 PM88 °FBroken clouds.3 mph62%29.83 "HgN/A
11:00 AM86 °FBroken clouds.5 mph66%29.86 "Hg6 mi
10:00 AM81 °FPartly sunny.5 mph84%29.86 "Hg6 mi
9:00 AM81 °FPartly sunny.2 mph84%29.86 "HgN/A
8:00 AM79 °FPartly sunny.2 mph89%29.86 "HgN/A
7:00 AM75 °FBroken clouds.2 mph100%29.83 "HgN/A
6:00 AM75 °FBroken clouds.3 mph94%29.83 "HgN/A
5:00 AM75 °FPartly cloudy.2 mph100%29.83 "HgN/A
4:00 AM77 °FPartly cloudy.1 mph94%29.83 "HgN/A
3:00 AM77 °FPartly cloudy.2 mph89%29.83 "HgN/A
2:00 AM77 °FPartly cloudy.2 mph89%29.83 "HgN/A
1:00 AM79 °FPartly cloudy.1 mph84%29.83 "HgN/A
11:00 PM
Aug 22
77 °FPartly cloudy.6 mph94%29.86 "HgN/A
10:00 PM75 °FPartly cloudy.7 mph100%29.86 "HgN/A
9:00 PM77 °FPartly cloudy.5 mph94%29.86 "HgN/A
8:00 PM79 °FPartly cloudy.5 mph89%29.86 "HgN/A
7:00 PM79 °FMostly cloudy.3 mph84%29.83 "HgN/A
6:00 PM79 °FMore clouds than sun.6 mph89%29.80 "Hg6 mi
5:00 PM79 °FMore clouds than sun.5 mph94%29.80 "Hg6 mi
Weather by CustomWeather, © 2014

See weather overviewHow to use our weather pages